{"data":{"norad_id":43113,"epoch":"2026-09-20T01:16:51.335616Z","epoch_age_seconds":90555,"freshness":"FRESH","line1":"1 43113U 18004C   26263.05337194  .00001323  00000+0  95950-4 0  9996","line2":"2 43113  99.2417 193.7685 0348934 147.9856 214.3073 14.68283911451403","mean_motion":14.68283911,"eccentricity":0.0348934,"inclination_deg":99.2417,"raan_deg":193.7685,"arg_perigee_deg":147.9856,"mean_anomaly_deg":214.3073,"bstar":9.595e-5,"rev_number":45140,"period_min":98.073675616268,"perigee_km":420.73868449379,"apogee_km":912.36497491459,"semimajor_km":7044.6888297042,"source":"CELESTRAK","updated_at":"2026-09-20T09:00:14.302450Z"}}